Flag for Switzerland Weather past 2 weeks in Winterthur, Switzerland

36 °F

Passing clouds.

Feels Like: 30 °F
Forecast: 43 / 48 °F
Wind: 7 mph from Southwest

Location: Zurich-Kloten

Current Time: Nov 29, 2015 at 4:29:44 AM

Latest Report: Nov 29, 2015 at 3:50 AM

Visibility: N/A

Pressure: 30.21 "Hg

Humidity: 81%

Dew point: 30 °F

Location of WinterthurLocation

Historic Weather in Winterthur — Graph


Winterthur temperature yesterday

Maximum temperature yesterday: 39 °F (at 2:50 PM)
Minimum temperature yesterday: 27 °F (at 2:50 AM)
Average temperature yesterday: 34 °F

Past Weeks' High & Low Weather Summary

High64 °F (Nov 15, 1:50 PM)100% (Nov 14, 8:50 AM)30.51 "Hg (Nov 14, 8:50 AM)
Low21 °F (Nov 24, 5:20 AM)42% (Nov 15, 11:20 AM)29.42 "Hg (Nov 21, 1:50 PM)
Average43 °F83%30.04 "Hg
* Reported Nov 14 3:20 AM — Nov 29 3:20 AM, Winterthur, Weather by CustomWeather, © 2015

Note: Actual official high and low records may vary slightly from our data, if they occured in-between our weather recording intervals... More about our weather records


Winterthur weather history for previous 24 hours

Time TempWeatherWind HumidityBarometerVisibility
3:20 AM
Sun, Nov 29
34 °FPassing clouds.5 mph87%30.24 "HgN/A
2:50 AM32 °FClear.5 mph93%30.24 "Hg10 mi
2:20 AM30 °FClear.3 mph93%30.24 "Hg10 mi
12:50 AM34 °FClear.6 mph87%30.24 "Hg10 mi
12:20 AM34 °FClear.6 mph87%30.24 "Hg10 mi
11:50 PM
Sat, Nov 28
34 °FClear.6 mph87%30.24 "Hg10 mi
11:20 PM36 °FPassing clouds.6 mph81%30.24 "HgN/A
10:50 PM34 °FClear.6 mph87%30.24 "Hg10 mi
10:20 PM32 °FClear.7 mph93%30.24 "Hg10 mi
9:20 PM30 °FPassing clouds.5 mph100%30.24 "HgN/A
8:50 PM30 °FPassing clouds.6 mph100%30.24 "HgN/A
8:20 PM34 °FPassing clouds.1 mph93%30.21 "HgN/A
7:50 PM34 °FPassing clouds.5 mph93%30.21 "HgN/A
7:20 PM34 °FPassing clouds.3 mph93%30.21 "HgN/A
6:50 PM36 °FPassing clouds.2 mph87%30.21 "HgN/A
6:20 PM36 °FPassing clouds.5 mph87%30.21 "HgN/A
5:50 PM36 °FPassing clouds.6 mph93%30.18 "HgN/A
5:20 PM36 °FPassing clouds.6 mph93%30.18 "HgN/A
4:50 PM37 °FPartly cloudy.5 mph93%30.18 "HgN/A
4:20 PM37 °FBroken clouds.2 mph87%30.15 "HgN/A
3:50 PM39 °FBroken clouds.2 mph87%30.15 "HgN/A
3:20 PM39 °FBroken clouds.6 mph87%30.12 "HgN/A
2:50 PM39 °FBroken clouds.7 mph93%30.12 "Hg4 mi
2:20 PM37 °FDrizzle. Partly sunny.5 mph93%30.12 "Hg4 mi
1:50 PM37 °FDrizzle. Broken clouds.6 mph93%30.09 "Hg4 mi
1:20 PM36 °FDrizzle. Broken clouds.6 mph100%30.09 "Hg4 mi
12:50 PM36 °FBroken clouds.6 mph100%30.09 "HgN/A
12:20 PM36 °FBroken clouds.6 mph93%30.09 "HgN/A
11:50 AM36 °FDrizzle. Broken clouds.6 mph93%30.09 "Hg3 mi
11:20 AM34 °FDrizzle. Partly sunny.5 mph100%30.07 "Hg3 mi
10:50 AM34 °FLight rain. Broken clouds.5 mph100%30.07 "Hg4 mi
10:20 AM34 °FLight rain. Broken clouds.2 mph100%30.04 "Hg2 mi
9:50 AM34 °FLight snow. Broken clouds.7 mph100%30.04 "Hg1 mi
9:20 AM34 °FLight snow. Dense fog.6 mph100%30.01 "Hg1 mi
8:50 AM34 °FLight snow. Broken clouds.7 mph93%29.98 "Hg1 mi
7:20 AM36 °FLight snow. Passing clouds.8 mph75%29.95 "Hg5 mi
6:50 AM34 °FPassing clouds.9 mph81%29.95 "HgN/A
6:20 AM34 °FPassing clouds.9 mph81%29.95 "HgN/A
5:50 AM34 °FPassing clouds.8 mph81%29.95 "HgN/A
5:20 AM34 °FPassing clouds.6 mph81%29.95 "HgN/A
4:50 AM32 °FPassing clouds.6 mph87%29.95 "HgN/A
4:20 AM32 °FPassing clouds.7 mph87%29.95 "HgN/A
Weather by CustomWeather, © 2015

See weather overviewHow to use our weather pages